Regional Weather Roundup
Issued by NWS

Home | Current Version | Previous Version | Text Only | Print | Product List | Glossary Off
Versions: 1 2 3 4 5 6 7 8 9 10 11 12 13 14 15 16 17 18 19 20 21 22 23 24 25 26 27 28 29 30 31 32 33 34 35 36 37 38 39 40 41 42 43 44 45 46 47 48 49 50

000
ASUS43 KIND 290359
RWRIN

WEATHER ROUNDUP FOR INDIANA
NATIONAL WEATHER SERVICE INDIANAPOLIS IN
1200 AM EDT SAT AUG 29 2015

NOTE: "FAIR" INDICATES FEW OR NO CLOUDS BELOW 12,000 FEET WITH NO
SIGNIFICANT WEATHER AND/OR OBSTRUCTIONS TO VISIBILITY.

* - STATION DOES NOT REPORT WEATHER SUCH AS PRECIPITATION OR FOG.

+ - STATION NOT QUALITY CONTROLLED BY THE NATIONAL WEATHER SERVICE.
    USE DATA WITH CAUTION...ESPECIALLY DEWPOINT AND RELATIVE
    HUMIDITY OBSERVATIONS.

INZ001>003-010>013-019-020-290500-
NORTHWEST INDIANA

CITY           SKY/WX    TMP DP  RH WIND       PRES   REMARKS
GARY /AIRPORT/ CLOUDY    69  61  75 E5        30.08F
KNOX *+        PTCLDY    63  61  94 E6        30.10R
RENSSELAER +   MOCLDY    68  61  77 SE5       30.09S

$$

LMZ046-743>745-290500-
SOUTHERN LAKE MICHIGAN

STATION/POSITION TIME  TEMP    WIND        PRES    WAVE
                       AIR SEA DIR/SP/G            HT
                 (UTC) (F)     (DEG/KT/KT) (MB)    (FT)
BURNS HARBOR     0300   74     130/  8/ 12 1019.3S
MICHIGAN CITY    0300   71      90/  5/  6   N/A
5NW MICH CITY    0300   71 71  120/  6/  8   N/A     0

$$

INZ004-005-014>016-021>024-290500-
NORTH CENTRAL INDIANA

CITY           SKY/WX    TMP DP  RH WIND       PRES   REMARKS
GOSHEN         CLOUDY    66  60  81 SE6       30.11F
SOUTH BEND     MOCLDY    69  61  75 SE5       30.12S
WARSAW +       CLOUDY    64  59  82 SE3       30.12S

$$

INZ006>009-017-018-025>027-290500-
NORTHEAST INDIANA

CITY           SKY/WX    TMP DP  RH WIND       PRES   REMARKS
ANGOLA *+      CLEAR     64  54  68 CALM      30.14S
AUBURN +       CLOUDY    64  59  82 CALM      30.15S
FORT WAYNE     CLOUDY    64  60  87 CALM      30.14R

$$

INZ028-029-035-036-043>045-051>053-290500-
WEST CENTRAL INDIANA

CITY           SKY/WX    TMP DP  RH WIND       PRES   REMARKS
CRAWFORDSVL +  MOCLDY    61  56  83 SE5       30.09S
GREENCASTLE +  CLEAR     61  54  77 CALM      30.10S
LAFAYETTE      MOCLDY    67  58  72 SE5       30.08S
TERRE HAUTE    PTCLDY    65  59  81 SE3       30.08S

$$

INZ030>032-037>040-046>048-054>057-064-065-290500-
CENTRAL INDIANA

CITY           SKY/WX    TMP DP  RH WIND       PRES   REMARKS
FRANKFORT +    MOCLDY    62  62 100 E6        30.11S
GREENWOOD *+   PTCLDY    66  55  68 SE5       30.12S
INDIANAPOLIS   PTCLDY    66  57  72 SE7       30.09S
-EAGLE CREEK   PTCLDY    66  57  72 SE3       30.10S
KOKOMO *+      CLOUDY    63  55  77 SE5       30.11S
MT COMFORT *+  MOCLDY    63  57  82 SE6       30.12S
SHELBYVILLE    PTCLDY    63  58  83 E6        30.11S
ZIONSVILLE +   PTCLDY    61  57  86 SE5       30.12S

$$

INZ033-034-041-042-049-050-058-059-290500-
EAST CENTRAL INDIANA

CITY           SKY/WX    TMP DP  RH WIND       PRES   REMARKS
MUNCIE         CLOUDY    62  59  90 SE6       30.13S

$$

INZ060-061-067>069-081>083-085>088-290500-
SOUTHWEST INDIANA

CITY           SKY/WX    TMP DP  RH WIND       PRES   REMARKS
EVANSVILLE     PTCLDY    70  65  84 NE3       30.08S
HUNTINGBURG *+ CLEAR     66  61  82 CALM      30.09S

$$

INZ062-063-066-070>080-084-089>092-290500-
SOUTH CENTRAL AND SOUTHEAST INDIANA

CITY           SKY/WX    TMP DP  RH WIND       PRES   REMARKS
BLOOMINGTON    CLEAR     62  60  93 CALM      30.10F
MADISON *+     CLEAR     63  59  88 E3        30.14F
SEYMOUR +      CLEAR     63  61  94 CALM      30.11S

$$




USA.gov is the U.S. government's official web portal to all federal, state and local government web resources and services.